"Pseudo-MPEC" for P225iTE

Created 2025 Jan 13 13:31:07 UT using Find_Orb

Click here for an explanation of pseudo-MPECs

 
 Astrometry: 
     P225iTE 1C2021 02 17.34630510 47 29.91 +30 06 48.9    ~1DCl 21.20GVNEOCPG96
     P225iTE 1C2021 02 17.35522610 47 28.90 +30 06 45.4    ~1DCl 21.23GVNEOCPG96
     P225iTE 1C2021 02 17.36111910 47 28.20 +30 06 43.3    ~1DCl 21.10GVNEOCPG96
     P225iTE 1C2021 02 17.36697410 47 27.50 +30 06 41.3    ~1DCl 21.09GVNEOCPG96
     P225iTE 3C2024 06 13.56037801 37 00.226+14 01 37.67   ~1DCl 22.8 rVNEOCPT09
     P225iTE 3C2024 06 13.57180401 37 01.603+14 01 53.65   ~1DCl 23.0 rVNEOCPT09
     P225iTE 3C2024 06 13.57273701 37 01.716+14 01 55.02   ~1DCl 22.8 rVNEOCPT09
     P225iTE 3C2024 06 13.58325401 37 02.974+14 02 09.60   ~1DCl 22.5 rVNEOCPT09
     P225iTE 3C2024 06 13.58424001 37 03.082+14 02 11.08   ~1DCl 22.6 rVNEOCPT09
     P225iTE 3C2024 06 13.59470301 37 04.332+14 02 25.44   ~1DCl 22.2 rVNEOCPT09
     P225iTE 3C2024 06 13.59564701 37 04.454+14 02 27.10   ~1DCl 22.8 rVNEOCPT09
     P225iTE 3C2024 06 13.60608601 37 05.695+14 02 41.50   ~1DCl 22.5 rVNEOCPT09
     P225iTE 3C2024 06 13.60702301 37 05.806+14 02 42.86   ~1DCl 22.6 rVNEOCPT09
     P225iTE* C2025 01 06.61805410 27 57.888+62 06 11.94   ~16M2 21.22wXNEOCPF52
     P225iTE  C2025 01 06.63020010 27 56.226+62 06 12.37   ~16M2 21.12wXNEOCPF52
     P225iTE  C2025 01 06.64245910 27 54.567+62 06 12.90   ~16M2 21.15wXNEOCPF52
     P225iTE  C2025 01 06.65458410 27 52.929+62 06 13.19   ~16M2 21.16wXNEOCPF52
     P225iTE 1C2025 01 08.59029410 23 33.774+62 07 02.57   ~18NH 21.56GVNEOCPT12
     P225iTE 1C2025 01 08.59188410 23 33.537+62 07 02.48   ~18NH 21.60GVNEOCPT12
     P225iTE 1C2025 01 08.59412410 23 33.216+62 07 02.47   ~18NH 21.55GVNEOCPT12
     P225iTE DC2025 01 12.24161 10 14 34.23 +62 03 15.9    ~1C6l 20.7 RoNEOCP695
     P225iTE DC2025 01 12.24723 10 14 33.31 +62 03 15.4    ~1C6l 20.7 RoNEOCP695
     P225iTE DC2025 01 12.25286 10 14 32.42 +62 03 14.5    ~1C6l 20.9 RoNEOCP695

Station data:
(695) Kitt Peak  (N31.958395 W111.594670)  US/Arizona. Measurer S. Deen.
   2.3-m f/9 reflector + CCD.
(F52) Pan-STARRS 2, Haleakala  (N20.707382 W156.255910)  US/Hawaii.
   Observers J. Bulger, T. Dukes, T. Lowe, A. Schultz, M. Willman. Measurers
   K. Chambers, S. Chastel, T. de Boer, L. Denneau, J. Fairlamb, H.
   Flewelling, M. Huber, C.-C. Lin, E. Magnier, Y. Ramanjooloo, R. Wainscoat,
   R. Weryk. 1.8-m Ritchey-Chrétien + CCD.
(G96) Mt. Lemmon Survey  (N32.442729 W110.788720)  US/Arizona.  Observer E.
   J. Christensen.  + 10K CCD.
(T09) Mauna Kea-UH/Tholen NEO Follow-Up (Subaru)  (N19.825504 W155.476019)
   US/Hawaii.  Observer J. Kleyna. 8.2-m f/2.2 Subaru reflector.
(T12) Mauna Kea-UH/Tholen NEO Follow-Up (2.24-m)  (N19.822991 W155.469434)
   US/Hawaii.  Observer R. Weryk. 2.24-m f/10.1 University of Hawaii
   reflector.

Orbital elements:  P225iTE
   Perihelion 2024 Oct 1.83594 +/- 0.00241 TT = 20:03:45 (JD 2460585.33594)
Epoch 2025 Jan 12.0 TT = JDT 2460687.5   Earth MOID: 0.7426      AutoNEOCP
M  24.34781626 +/- 0.00055          (J2000 ecliptic)
n   0.23832076 +/- 1.6e-7           Peri.   67.90158 +/- 0.0010
a   2.57648804 +/- 1.15e-6          Node   351.99616 +/- 0.00009
e   0.3882443 +/- 6.33e-7           Incl.   28.37411 +/- 0.00017
P   4.13563                H 18.76  G  0.15   U  2.5
q 1.57618124 +/- 9.37e-7    Q 3.57679485 +/- 3.23e-6
From 23 observations 2021 Feb. 17-2025 Jan. 12; mean residual 0".15
Residuals in arcseconds: 
210217 G96  .05-  .19-    240613 T09  .07-  .06+    250106 F52  .00   .05-    
210217 G96  .29+  .16-    240613 T09  .07-  .17-    250108 T12  .01+  .04+    
210217 G96  .09+  .07+    240613 T09  .06+  .17+    250108 T12  .02-  .04-    
210217 G96  .17-  .40+    240613 T09  .01-  .01+    250108 T12  .04+  .02-    
240613 T09  .09-  .08-    240613 T09  .02-  .07+    250112 695  .03-  .53+    
240613 T09  .04+  .03-    250106 F52  .02+  .04-    250112 695  .21-  .50+    
240613 T09  .07+  .04+    250106 F52  .06-  .07-    250112 695  .16-  .08+    
240613 T09  .07+  .05-    250106 F52  .04-  .03+    

Ephemerides (geocentric):
Date (UTC) HH   RA             Dec           delta  r     elong  mag " sig PA
---- --------  ------------   ------------  ------ ------ -----  --- --------
2025 01 13 14  10 10 59.855   +61 59 58.54  .98129 1.7948 132.0 21.1 .049 140
2025 01 13 15  10 10 53.117   +61 59 51.39  .98130 1.7949 132.0 21.1 .050 140
2025 01 13 16  10 10 46.372   +61 59 44.16  .98131 1.7951 132.0 21.1 .050 140
2025 01 13 17  10 10 39.621   +61 59 36.88  .98132 1.7952 132.0 21.1 .050 140
2025 01 13 18  10 10 32.863   +61 59 29.52  .98133 1.7954 132.1 21.1 .051 140
2025 01 13 19  10 10 26.099   +61 59 22.10  .98134 1.7955 132.1 21.1 .051 140
2025 01 13 20  10 10 19.329   +61 59 14.62  .98135 1.7957 132.1 21.1 .051 140
2025 01 13 21  10 10 12.553   +61 59 07.07  .98136 1.7958 132.1 21.1 .052 140
2025 01 13 22  10 10 05.770   +61 58 59.46  .98137 1.7960 132.1 21.1 .052 140
2025 01 13 23  10 09 58.981   +61 58 51.78  .98138 1.7962 132.2 21.1 .053 140
2025 01 14 00  10 09 52.185   +61 58 44.03  .98139 1.7963 132.2 21.1 .053 140
2025 01 14 01  10 09 45.384   +61 58 36.22  .98140 1.7965 132.2 21.1 .053 140
2025 01 14 02  10 09 38.576   +61 58 28.34  .98142 1.7966 132.2 21.1 .054 140
2025 01 14 03  10 09 31.762   +61 58 20.40  .98143 1.7968 132.2 21.1 .054 140
2025 01 14 04  10 09 24.941   +61 58 12.39  .98144 1.7969 132.3 21.1 .054 140
2025 01 14 05  10 09 18.115   +61 58 04.31  .98145 1.7971 132.3 21.1 .055 140
2025 01 14 06  10 09 11.283   +61 57 56.17  .98147 1.7972 132.3 21.1 .055 140
2025 01 14 07  10 09 04.444   +61 57 47.96  .98148 1.7974 132.3 21.1 .056 140
2025 01 14 08  10 08 57.599   +61 57 39.68  .98149 1.7976 132.3 21.1 .056 140
2025 01 14 09  10 08 50.749   +61 57 31.34  .98150 1.7977 132.4 21.1 .056 140
2025 01 14 10  10 08 43.892   +61 57 22.93  .98152 1.7979 132.4 21.1 .057 140
2025 01 14 11  10 08 37.029   +61 57 14.46  .98153 1.7980 132.4 21.1 .057 140
2025 01 14 12  10 08 30.161   +61 57 05.91  .98155 1.7982 132.4 21.1 .057 140
2025 01 14 13  10 08 23.286   +61 56 57.30  .98156 1.7983 132.4 21.1 .058 140
2025 01 14 14  10 08 16.406   +61 56 48.63  .98158 1.7985 132.5 21.1 .058 140
2025 01 14 15  10 08 09.519   +61 56 39.88  .98159 1.7987 132.5 21.1 .059 140
2025 01 14 16  10 08 02.627   +61 56 31.07  .98161 1.7988 132.5 21.1 .059 140
2025 01 14 17  10 07 55.729   +61 56 22.19  .98162 1.7990 132.5 21.1 .059 140
2025 01 14 18  10 07 48.825   +61 56 13.25  .98164 1.7991 132.5 21.1 .060 140
2025 01 14 19  10 07 41.916   +61 56 04.23  .98165 1.7993 132.6 21.1 .060 140
2025 01 14 20  10 07 35.000   +61 55 55.15  .98167 1.7994 132.6 21.1 .060 140
2025 01 14 21  10 07 28.079   +61 55 46.00  .98169 1.7996 132.6 21.1 .061 140
2025 01 14 22  10 07 21.152   +61 55 36.79  .98170 1.7997 132.6 21.1 .061 140
2025 01 14 23  10 07 14.220   +61 55 27.50  .98172 1.7999 132.6 21.1 .062 140
2025 01 15 00  10 07 07.281   +61 55 18.15  .98174 1.8001 132.7 21.1 .062 140
2025 01 15 01  10 07 00.337   +61 55 08.73  .98176 1.8002 132.7 21.1 .062 140
2025 01 15 02  10 06 53.388   +61 54 59.24  .98178 1.8004 132.7 21.1 .063 140
2025 01 15 03  10 06 46.433   +61 54 49.68  .98179 1.8005 132.7 21.1 .063 140
2025 01 15 04  10 06 39.472   +61 54 40.06  .98181 1.8007 132.7 21.1 .063 140
2025 01 15 05  10 06 32.506   +61 54 30.36  .98183 1.8008 132.8 21.1 .064 140
2025 01 15 06  10 06 25.535   +61 54 20.60  .98185 1.8010 132.8 21.1 .064 140
2025 01 15 07  10 06 18.558   +61 54 10.77  .98187 1.8012 132.8 21.1 .065 140
2025 01 15 08  10 06 11.575   +61 54 00.87  .98189 1.8013 132.8 21.1 .065 140
2025 01 15 09  10 06 04.587   +61 53 50.90  .98191 1.8015 132.8 21.1 .065 140
2025 01 15 10  10 05 57.594   +61 53 40.87  .98193 1.8016 132.9 21.1 .066 140
2025 01 15 11  10 05 50.595   +61 53 30.76  .98195 1.8018 132.9 21.1 .066 140
2025 01 15 12  10 05 43.591   +61 53 20.58  .98197 1.8019 132.9 21.1 .066 140
2025 01 15 13  10 05 36.582   +61 53 10.34  .98199 1.8021 132.9 21.1 .067 140